Theta_e
352 352 351 350 349 347 345 344 342 341 341 340 337 333 332 331 330 330 329 330 331 331 331 331 332 335 337 336 335 336 336 336 336 336 337 337 338 338 339 339 339 337 338 338 338 338 337 335 337 337 334 330 329 331 333 334 334 335 337 337 337 338 338 338 335 331 328 329 330 332 335 335 335 334 334 335 336 336 336 336 337 337 336 334 332
354 353 352 351 350 348 345 344 343 342 343 343 340 336 333 331 330 330 329 329 329 329 329 329 331 333 335 335 335 334 334 335 335 335 335 335 336 337 338 338 338 338 337 337 337 337 336 335 335 336 338 335 330 329 330 331 333 334 333 334 334 334 333 334 334 331 328 327 328 329 332 333 334 334 334 335 335 336 336 337 337 337 336 335 334
354 354 354 353 351 349 346 344 342 342 343 342 340 338 335 333 331 330 330 330 329 329 329 329 329 331 333 334 334 334 333 334 334 335 334 334 335 334 335 336 336 337 337 337 338 337 336 336 335 335 336 338 335 330 329 330 332 332 332 331 332 332 331 331 331 330 327 325 326 326 329 330 331 332 334 336 336 337 337 336 337 338 337 335 334
356 355 355 355 353 351 348 346 343 342 342 341 339 337 336 335 334 332 331 330 330 329 329 329 330 331 333 333 334 334 333 333 334 335 335 334 334 334 334 334 334 334 335 335 336 337 337 336 335 335 335 336 336 334 332 330 330 329 330 331 330 330 330 330 329 328 327 326 325 324 326 327 328 330 333 336 337 337 338 337 337 337 336 335 336
357 356 356 355 355 353 350 347 345 343 341 340 338 337 336 336 334 333 332 331 331 330 329 330 331 331 332 333 334 333 333 334 334 335 335 335 335 334 334 334 334 333 332 332 333 334 335 335 335 335 336 335 335 336 335 333 331 329 328 328 329 328 329 329 328 328 327 326 325 324 324 325 326 328 331 334 336 338 338 337 337 336 335 336 336
357 357 356 356 356 355 353 351 348 345 342 340 338 338 337 337 335 334 332 332 332 331 331 331 331 332 332 332 333 333 333 334 335 335 335 335 335 335 334 334 333 333 333 333 333 332 333 333 333 334 335 335 335 335 336 336 335 332 329 327 327 328 328 328 327 327 327 325 325 325 324 324 325 326 328 331 334 336 337 337 336 335 335 336 336
357 356 357 357 357 356 355 353 352 349 345 342 339 339 338 338 336 334 333 332 332 331 331 331 331 331 332 332 333 333 334 336 336 336 336 337 336 336 336 334 334 334 334 334 334 333 333 333 333 333 333 333 334 335 335 336 336 334 331 329 327 327 328 328 327 327 326 325 325 326 325 325 324 324 326 329 333 335 336 336 336 334 334 335 335
357 357 357 358 358 358 356 355 353 350 348 345 342 340 340 340 338 336 334 333 333 332 331 331 331 332 332 333 333 333 335 337 337 338 338 338 338 338 337 336 336 334 334 334 334 334 334 334 334 333 333 332 332 332 333 334 335 336 335 332 330 329 327 328 328 328 328 328 327 326 326 326 326 325 325 327 330 331 330 331 331 331 333 335 336
357 358 358 359 359 359 358 357 355 353 351 348 345 342 341 341 340 338 337 334 333 333 333 332 332 333 333 333 334 334 336 338 337 337 338 338 338 338 337 337 337 337 336 335 335 335 335 335 335 334 333 333 332 331 332 333 334 335 335 335 334 333 331 329 327 328 329 329 328 328 328 328 327 327 327 326 327 326 326 327 329 330 333 335 336
359 359 359 359 359 359 359 358 357 355 354 351 348 346 343 343 343 342 339 336 335 333 333 334 333 333 333 334 335 335 337 337 337 336 337 337 337 337 337 337 338 339 339 338 338 338 337 337 336 336 335 335 335 334 333 332 333 334 335 335 335 336 336 334 332 330 330 329 328 327 328 328 326 327 327 327 327 327 326 327 328 330 333 336 336
361 361 361 360 360 360 360 359 359 357 356 354 352 349 346 345 345 343 341 339 337 335 335 335 334 333 334 334 335 336 337 337 336 336 336 337 339 340 340 340 339 340 340 341 341 340 339 339 338 338 338 337 337 335 334 334 333 333 334 334 334 335 336 337 336 336 335 332 330 329 329 327 325 326 327 328 329 329 328 328 327 329 333 335 334
361 361 361 361 361 361 362 361 360 360 358 357 355 353 351 349 347 346 344 341 338 338 336 336 335 335 336 336 336 336 337 336 336 337 337 338 341 343 344 343 343 342 342 342 342 342 342 342 341 341 341 340 339 338 336 335 335 334 334 335 335 336 337 336 336 338 338 338 336 335 332 330 327 327 326 327 328 329 329 330 328 329 332 333 331
360 361 361 362 362 362 363 363 363 362 361 360 359 357 354 352 350 348 346 343 341 340 338 337 336 336 337 337 336 336 336 335 336 337 337 339 341 344 346 346 346 345 344 344 344 344 344 344 344 343 342 342 341 341 340 338 337 337 338 338 339 339 338 338 337 338 340 342 341 340 337 335 332 329 327 328 329 330 331 331 330 329 329 329 328
361 362 362 363 363 363 363 364 363 364 363 362 361 359 356 354 352 349 347 345 343 341 339 339 338 337 338 338 338 337 336 336 336 337 338 340 342 345 346 348 348 348 347 347 347 347 346 346 346 345 344 344 344 343 342 341 340 340 340 340 340 340 340 340 339 339 342 343 343 341 337 337 336 332 332 333 333 332 332 332 331 330 329 328 328
362 363 363 363 363 363 363 364 364 365 365 364 363 361 359 356 354 351 350 347 345 343 340 340 339 338 339 339 338 338 337 337 337 338 340 341 344 347 349 350 351 351 350 351 350 350 349 349 349 348 348 348 348 347 346 345 345 344 344 343 342 342 342 341 340 340 340 341 341 339 336 337 337 336 336 336 336 335 334 334 334 333 332 329 329
362 363 363 363 363 363 364 364 365 365 365 365 364 363 361 359 356 354 352 350 348 346 344 342 342 341 341 341 341 340 337 338 338 339 341 343 346 350 351 352 353 353 353 353 352 352 352 352 351 351 351 351 351 350 350 349 349 349 348 347 346 345 345 344 344 344 342 342 342 341 339 340 341 341 341 340 339 339 339 338 337 337 335 334 332
363 363 364 363 363 364 364 364 365 365 365 365 365 364 363 361 359 356 354 352 350 348 346 345 343 342 343 343 344 342 340 340 341 341 343 346 350 352 353 354 354 355 354 355 354 354 355 354 354 354 354 353 353 352 353 352 352 352 351 350 350 349 348 348 348 347 346 345 345 345 344 345 345 346 345 345 344 343 341 340 339 338 337 335 333
363 364 364 364 364 364 364 364 364 364 365 364 364 364 363 362 360 358 356 354 351 349 347 347 345 345 345 345 345 345 346 346 347 348 348 349 352 353 354 355 356 356 356 357 357 357 357 357 356 356 356 356 356 355 355 355 354 353 353 353 352 351 351 351 352 351 350 350 349 349 348 347 348 349 348 348 347 346 344 343 342 340 339 337 335
363 364 364 364 364 364 364 364 364 364 364 364 364 364 363 362 361 360 358 356 354 351 349 349 348 346 346 346 346 347 349 351 352 353 353 354 354 355 356 357 357 357 357 357 358 358 358 358 359 359 359 359 358 359 358 357 357 356 355 354 354 353 353 353 353 353 352 352 352 351 351 350 350 349 349 349 349 348 347 346 344 342 341 340 337
363 364 364 364 365 364 364 364 363 363 364 363 363 363 362 361 361 360 359 358 357 355 353 351 350 349 348 348 348 349 350 351 352 353 355 355 356 357 358 358 358 358 358 357 358 358 359 359 359 359 360 361 360 361 361 360 359 359 357 357 356 356 356 355 355 355 354 354 354 353 353 353 352 351 351 350 350 349 349 348 347 345 344 342 340
359 360 361 362 362 362 362 363 363 363 363 362 362 362 362 362 361 360 360 359 358 358 356 355 354 352 351 350 350 349 350 351 352 353 354 355 356 357 358 359 359 359 359 359 359 360 360 360 361 361 362 362 362 362 362 363 362 361 360 359 359 359 358 357 357 357 356 356 356 355 355 355 354 353 353 352 352 351 350 349 348 347 345 344 342
355 355 356 356 358 357 358 360 361 362 362 363 362 362 362 362 361 360 360 360 359 359 358 357 356 355 354 353 353 352 352 353 353 354 355 356 357 357 358 359 359 360 360 360 360 361 361 362 362 362 362 363 362 363 363 363 363 363 362 361 361 360 359 359 359 358 358 358 357 356 357 356 355 355 354 353 353 352 351 351 350 349 347 346 345
354 353 353 352 352 352 352 354 357 359 361 362 361 363 362 361 361 361 360 360 360 360 359 359 358 358 357 356 356 356 355 356 356 357 357 359 358 359 360 360 360 361 361 362 362 362 362 363 362 363 363 363 363 363 363 363 363 363 363 363 362 362 361 360 360 359 359 359 358 357 357 357 356 355 354 354 353 352 352 352 351 350 349 347 346
354 354 354 353 351 350 349 350 352 355 358 360 361 362 362 362 362 362 361 361 360 360 360 360 361 360 360 360 360 359 359 359 359 359 360 361 361 361 362 361 362 362 362 362 362 362 363 363 362 362 362 362 362 361 362 362 362 362 362 362 362 362 361 361 361 360 360 360 359 359 359 358 357 356 355 355 354 353 353 352 351 351 349 346 345
353 353 354 354 353 351 351 350 351 353 355 358 360 361 362 362 362 362 362 361 361 361 362 362 362 362 362 362 362 362 362 361 361 361 361 362 362 362 362 362 362 362 362 362 363 363 363 363 362 362 362 361 361 361 361 362 362 362 362 362 362 362 362 361 361 361 361 360 360 359 359 358 358 357 356 354 353 352 353 351 351 351 348 345 344
352 352 353 353 354 353 353 352 352 352 354 357 359 361 361 362 362 363 363 363 362 363 363 364 364 364 364 365 365 364 364 363 363 363 363 363 363 363 363 363 363 364 364 364 364 364 364 364 363 363 363 362 362 362 362 362 362 362 362 362 362 362 362 362 362 362 362 362 361 361 360 360 359 357 355 354 353 353 352 351 350 349 347 345 344
353 351 353 354 354 353 355 353 353 354 355 359 361 361 362 363 363 363 364 364 364 364 365 365 366 366 366 366 366 366 365 365 364 364 364 363 363 363 364 365 365 365 365 365 365 365 365 365 365 364 364 364 364 363 363 363 362 362 362 362 362 362 362 361 361 361 361 360 361 360 360 359 358 354 352 352 353 353 353 352 350 349 347 345 344
356 354 353 354 354 355 354 355 355 356 359 361 363 365 365 365 365 365 365 365 365 366 366 366 366 366 366 366 366 366 366 365 365 365 364 364 364 364 365 365 365 364 364 364 363 364 363 363 363 362 362 363 362 362 362 362 362 361 361 361 361 361 361 361 361 361 361 361 360 359 358 358 356 354 352 351 352 352 352 352 350 348 348 346 344
361 360 356 355 354 354 356 357 357 358 361 362 364 366 367 367 368 367 367 366 366 366 366 366 367 367 367 367 367 366 366 366 366 366 366 365 365 364 365 363 363 362 362 361 361 361 360 361 361 361 361 361 361 361 360 359 359 359 358 358 357 356 356 355 354 353 352 351 350 349 348 348 348 349 350 351 350 350 350 350 350 349 347 346 345
364 365 362 360 358 358 359 362 361 362 362 362 363 365 366 367 367 367 367 367 366 367 367 368 368 368 367 368 368 368 367 367 367 366 366 366 365 365 364 362 362 361 360 360 360 360 359 359 359 357 356 354 352 350 347 345 344 343 341 341 340 339 338 337 337 336 335 335 334 334 334 335 337 339 342 346 346 345 346 348 349 348 347 345 345
365 368 367 365 365 364 363 364 365 364 364 364 364 365 366 366 368 368 369 369 368 368 369 368 369 369 368 368 368 368 367 367 367 366 366 365 365 363 362 361 361 360 360 361 360 358 355 352 348 345 342 338 336 334 332 332 331 331 331 330 330 330 330 330 330 330 330 330 330 330 330 332 333 335 338 341 342 343 344 346 348 347 346 345 344
363 367 368 367 368 367 366 366 366 366 366 366 366 366 366 367 368 370 370 371 371 370 370 368 369 370 369 368 367 367 366 366 365 364 363 362 362 361 361 361 360 359 357 354 349 344 340 337 334 332 330 330 329 329 329 329 329 329 329 328 328 328 328 328 328 328 328 328 329 329 329 330 331 332 335 337 340 341 343 345 346 346 345 344 344
362 364 366 367 367 367 367 368 368 368 368 368 368 369 369 369 369 370 370 370 370 370 370 369 368 368 368 367 365 364 363 362 362 361 361 361 360 359 357 355 352 347 342 337 333 330 329 328 328 328 328 328 328 327 327 327 327 327 327 327 327 327 327 328 328 328 328 328 329 329 329 329 330 331 332 334 336 338 341 343 344 345 344 344 343
363 364 364 365 365 366 366 367 367 368 369 369 369 369 369 368 368 368 367 367 367 367 367 366 365 365 365 364 363 361 360 360 359 358 355 353 350 347 343 339 335 332 330 329 328 327 327 327 327 327 327 327 326 326 326 326 326 326 326 326 327 327 327 327 327 328 327 328 328 328 328 328 329 330 331 332 333 335 338 340 342 343 343 343 342
363 365 364 363 363 365 366 365 365 366 367 367 367 367 367 366 366 366 365 365 364 364 363 362 360 359 358 357 356 355 353 351 348 344 341 337 334 332 330 329 328 328 327 327 326 326 326 326 326 326 326 325 325 325 325 325 325 326 326 326 326 326 326 326 327 326 327 327 327 327 328 328 328 328 329 330 330 332 334 337 340 342 342 342 341
361 363 364 364 364 365 365 365 365 365 365 365 365 364 363 362 360 360 361 361 360 360 357 354 352 348 344 342 341 339 337 335 333 330 329 328 328 327 327 327 326 326 326 326 325 325 325 325 325 325 325 324 324 324 324 325 325 325 324 325 325 325 325 325 326 326 326 326 326 326 327 327 328 328 329 329 330 330 331 333 338 340 340 340 340
359 360 361 362 364 365 365 365 365 364 364 363 362 361 359 356 355 355 354 354 353 351 346 342 339 335 332 330 330 329 328 328 327 326 327 326 326 326 325 325 325 325 325 325 325 324 324 324 323 323 323 323 323 323 324 323 323 323 323 324 324 324 324 325 324 324 324 324 325 325 326 327 328 329 329 330 330 331 332 332 334 337 338 338 339
354 355 355 357 360 362 362 360 360 360 359 357 357 356 354 351 349 347 345 343 340 338 335 332 330 329 328 327 327 327 326 326 326 326 325 325 324 324 324 324 325 325 325 325 324 324 323 322 322 322 322 322 322 322 322 322 322 322 322 323 323 323 323 323 322 322 323 323 323 324 325 326 327 329 330 330 331 332 333 333 334 334 335 336 338
350 349 347 348 352 354 355 353 352 352 351 349 347 347 346 343 341 339 335 333 330 329 328 327 326 326 326 325 325 325 325 325 325 325 324 324 324 324 324 324 324 325 325 324 324 322 321 320 321 321 321 321 322 321 321 321 321 321 322 322 322 322 322 321 321 321 321 322 323 324 324 326 327 329 330 331 332 333 334 335 335 335 335 335 335
347 346 345 344 344 345 346 345 345 345 344 343 341 340 340 338 337 335 332 330 329 328 327 326 327 327 327 326 325 325 324 324 324 324 323 323 323 323 323 324 325 325 325 325 323 320 320 320 320 321 321 320 321 321 320 320 320 321 321 321 321 321 320 320 320 320 321 322 323 324 325 325 326 327 328 329 331 332 334 334 334 334 335 334 333
345 345 345 343 343 342 341 340 340 340 340 339 338 338 338 337 337 336 336 335 334 332 331 331 332 331 331 330 328 327 325 324 324 324 324 323 324 324 324 324 325 325 325 325 323 320 319 320 320 320 320 320 319 320 320 320 320 320 320 320 320 320 320 320 319 319 320 321 322 322 323 325 326 327 327 327 328 329 330 330 331 330 330 331 330
343 343 344 343 342 342 341 341 340 340 339 339 339 338 338 338 338 338 338 336 335 334 334 333 333 333 333 332 331 330 329 328 328 329 329 328 328 327 325 324 325 326 326 325 323 320 319 319 319 319 319 319 319 319 319 319 319 319 319 320 320 320 320 320 320 319 320 320 319 320 320 322 323 324 325 325 325 326 325 326 325 325 325 325 324
342 342 342 341 342 341 341 340 340 340 339 339 339 338 338 338 338 337 337 336 336 335 334 334 334 334 334 333 333 332 331 331 331 332 332 331 331 330 327 326 327 328 327 325 323 321 319 319 319 319 319 319 319 319 319 319 318 319 319 319 319 319 319 319 320 320 320 320 319 319 319 319 320 320 321 321 321 322 323 323 323 322 322 322 322
342 341 341 340 339 340 339 339 339 339 338 338 338 337 337 337 337 337 336 335 335 335 334 334 334 334 334 333 333 333 333 332 332 332 332 331 331 331 330 329 329 328 327 326 325 322 320 319 319 319 319 318 319 319 318 318 318 318 318 318 318 318 318 318 319 319 319 320 320 319 319 318 318 318 318 318 318 319 320 321 321 321 321 321 321
341 340 340 339 338 338 338 338 338 338 337 336 337 336 336 336 336 336 335 335 335 335 335 335 335 335 334 334 333 333 333 333 332 332 332 331 331 331 331 331 330 329 327 327 327 325 323 321 319 319 318 318 319 318 318 318 318 318 318 318 318 318 318 318 318 318 319 319 320 319 319 319 318 318 319 319 319 319 318 318 318 318 318 319 319
339 339 338 338 338 338 338 337 337 337 337 336 336 336 335 336 335 335 335 335 335 335 335 335 334 334 334 334 334 333 333 333 333 332 332 332 331 331 331 330 330 329 327 327 327 328 327 325 323 320 318 318 319 318 318 318 318 318 318 318 318 318 318 318 318 318 318 319 319 319 318 318 318 318 318 319 319 320 320 320 319 318 317 317 316
337 337 337 337 337 337 336 336 336 336 336 336 336 335 335 334 334 334 334 335 335 335 335 335 334 334 334 334 333 333 333 332 332 332 332 331 331 331 331 330 330 329 328 327 327 328 328 327 326 323 320 318 318 318 318 318 318 319 319 319 319 319 318 318 318 318 318 318 318 318 318 318 318 318 318 318 318 319 319 319 319 319 318 317 317
333 333 333 333 334 334 333 332 332 332 332 332 333 333 333 332 332 331 331 331 331 331 331 331 331 331 331 331 331 331 331 331 331 332 332 331 331 331 331 331 330 330 329 328 327 327 327 327 326 325 323 321 319 318 318 319 319 319 319 320 321 321 321 320 319 319 320 320 319 318 318 317 317 317 317 317 317 317 317 316 317 317 317 316 316
329 328 328 329 329 329 327 327 326 327 327 327 327 327 327 326 326 326 325 324 324 324 324 324 325 325 325 325 326 326 327 328 329 329 330 330 330 330 330 330 330 330 330 329 328 327 327 327 326 325 325 323 322 320 319 319 319 319 319 320 321 323 324 323 322 322 322 323 322 321 320 320 320 319 318 318 317 317 316 316 315 315 315 315 314
326 325 325 325 325 324 323 323 324 324 324 324 324 323 323 322 322 321 320 320 320 320 320 320 321 321 322 322 322 323 323 324 325 326 327 327 328 328 329 329 329 330 330 329 329 328 328 328 327 327 326 325 324 323 322 321 321 321 320 320 322 323 324 324 323 322 322 323 323 323 322 322 322 322 322 321 320 320 319 318 317 316 315 315 314
321 320 320 320 320 319 320 320 321 321 321 321 320 320 320 320 320 319 319 319 319 319 319 319 320 320 320 321 321 322 322 323 323 324 324 324 325 326 327 327 327 328 328 328 329 329 328 328 328 327 327 326 325 325 324 324 322 321 321 321 323 324 324 323 323 322 322 322 322 321 321 321 321 321 320 320 319 319 319 318 318 318 317 317 317
Wind_Speed
49 49 49 50 50 50 49 47 45 44 43 42 41 40 39 38 37 35 34 33 32 31 29 27 26 26 25 24 23 23 23 22 21 22 23 23 23 23 23 23 23 22 21 20 20 20 19 18 17 16 17 21 23 23 22 21 21 21 21 22 22 23 22 23 25 24 21 21 21 19 18 19 20 21 21 20 19 20 22 22 21 20 20 19 18
49 48 47 48 50 50 50 48 46 45 45 44 43 42 41 39 38 37 36 34 33 32 31 29 28 27 26 26 25 25 24 24 24 24 24 24 24 24 24 25 25 24 23 23 23 22 22 21 19 18 18 20 23 26 25 23 23 23 23 23 23 23 23 24 25 25 24 22 22 22 22 22 23 22 21 21 20 20 22 22 21 21 21 19 18
48 47 46 46 48 49 49 49 47 46 46 46 45 44 43 41 39 38 37 35 34 33 32 31 29 29 28 27 27 27 26 26 26 26 25 25 25 25 25 25 25 25 24 24 24 24 24 23 22 20 20 21 23 26 28 27 26 26 25 25 25 24 25 25 25 26 26 23 22 24 25 25 25 24 23 22 21 21 22 22 22 22 22 21 20
48 47 46 45 45 47 48 48 48 47 47 46 46 44 43 42 41 40 38 37 36 34 33 33 31 31 30 30 29 29 29 28 28 28 27 27 26 26 26 26 26 25 25 25 25 25 26 25 24 22 22 23 23 24 27 29 29 29 29 28 28 27 27 27 28 28 28 27 25 24 26 27 27 26 26 25 23 23 23 24 24 24 24 22 21
48 47 46 45 45 46 47 47 47 48 47 46 46 45 44 43 43 41 40 39 38 36 35 35 34 33 32 32 31 31 31 30 29 29 29 28 28 27 28 28 28 27 27 26 26 26 27 27 26 24 24 25 25 25 26 29 30 32 32 32 31 30 30 30 31 31 31 32 29 26 26 28 29 29 28 27 26 26 26 27 27 26 25 24 23
48 47 46 46 46 46 46 45 45 46 46 46 46 45 45 44 43 42 41 40 39 38 38 36 35 35 34 33 33 33 32 31 31 31 30 30 30 29 29 30 30 29 29 28 28 28 28 28 28 27 27 27 26 26 26 27 30 32 34 34 34 34 34 33 33 33 34 34 33 30 29 29 31 31 31 30 29 29 29 29 29 29 28 26 25
48 47 47 47 47 48 47 44 43 43 44 45 46 46 46 45 44 43 41 41 40 40 39 38 37 36 35 35 34 34 34 33 33 32 32 32 32 31 31 31 32 32 31 31 30 30 30 29 29 29 29 29 28 27 27 27 28 30 32 34 35 36 37 37 36 37 37 36 36 34 32 30 31 32 32 31 32 33 32 33 33 32 31 29 27
48 48 47 47 48 48 47 44 41 40 41 43 45 46 47 46 45 44 42 42 41 41 40 40 39 38 37 36 36 35 35 36 35 34 34 34 34 34 34 34 34 33 33 33 33 33 33 32 31 31 31 30 29 29 28 28 28 29 29 30 33 36 38 38 39 39 39 39 38 37 35 33 32 33 33 33 35 36 35 35 36 34 31 30 28
48 48 47 47 47 48 47 45 42 41 41 43 45 47 47 47 46 45 44 43 42 41 41 40 40 39 39 38 38 37 38 38 37 36 35 35 35 35 35 36 36 36 35 35 35 35 35 34 34 33 33 33 32 31 30 29 29 30 29 29 31 33 35 36 38 40 41 41 40 39 38 37 35 34 34 36 38 37 35 35 36 34 31 30 30
47 48 47 47 46 45 46 45 43 42 42 43 44 46 47 47 47 47 46 45 43 42 42 41 41 41 40 40 40 40 40 39 38 37 36 36 36 36 36 37 37 38 38 37 36 36 36 36 36 35 34 34 34 34 33 32 31 31 31 31 31 32 33 34 36 38 40 41 42 40 40 41 39 37 37 37 37 37 36 36 37 35 32 32 31
46 47 47 46 44 43 43 43 43 43 43 44 44 45 46 47 48 48 47 46 45 44 43 43 42 42 41 41 41 41 41 40 39 38 37 37 37 38 38 38 38 39 39 39 38 37 36 36 36 36 36 35 35 35 35 35 34 34 33 33 33 33 34 34 35 36 38 40 41 41 42 43 41 39 39 38 38 38 38 37 37 37 36 34 34
44 45 45 44 43 42 41 40 41 42 43 44 45 45 46 47 48 48 48 47 46 45 45 44 44 43 42 43 42 42 42 41 40 39 39 38 39 39 39 39 39 39 40 40 40 39 38 38 37 37 37 36 35 35 35 36 36 36 36 36 36 36 36 37 37 37 38 39 41 42 43 42 41 40 40 39 38 39 38 38 39 39 38 37 37
42 43 43 43 42 40 39 38 38 39 40 42 44 45 46 47 48 48 48 48 47 46 46 45 45 44 44 44 44 43 42 41 40 40 39 39 38 39 39 40 40 40 40 40 40 40 40 39 39 38 37 36 36 36 36 36 36 37 38 39 39 40 39 39 39 39 39 40 42 43 42 42 41 40 38 37 38 39 39 39 40 41 41 40 38
43 43 43 42 40 39 38 37 37 37 37 38 41 43 45 46 47 48 48 48 48 47 47 46 46 45 45 45 44 43 43 41 40 40 39 38 37 37 38 39 40 40 40 40 40 40 40 40 40 39 38 38 38 37 37 37 37 37 38 40 41 42 42 42 41 41 41 42 44 44 42 42 42 40 38 38 40 40 40 40 39 40 41 39 37
44 44 43 41 40 39 38 37 37 36 36 37 39 41 43 44 46 47 47 48 48 48 47 47 46 46 45 45 44 44 43 41 40 39 38 37 36 36 36 38 39 40 40 40 40 40 40 41 41 41 40 41 40 40 39 38 38 39 40 41 42 42 43 44 43 42 42 43 45 45 44 43 43 41 40 41 42 41 41 40 39 38 38 38 38
44 44 43 42 40 39 38 38 38 37 36 38 39 40 41 41 43 44 46 47 48 48 47 47 47 47 46 45 46 45 43 41 40 39 37 36 35 36 36 37 38 39 39 40 40 41 41 41 42 42 42 42 41 41 41 40 41 42 43 43 44 44 46 45 43 43 43 44 45 46 45 45 45 44 43 43 44 43 43 43 42 39 39 41 43
43 43 43 42 41 40 39 38 38 38 38 39 40 40 40 39 40 41 43 45 46 48 48 48 47 47 46 46 47 46 44 42 41 40 38 37 36 36 37 37 38 39 39 39 40 40 40 40 41 41 42 42 41 41 41 42 43 45 46 46 47 49 50 48 46 45 45 45 47 47 47 47 47 48 47 46 46 45 45 47 46 43 43 46 48
42 42 43 42 41 40 40 40 39 39 39 40 40 39 39 39 39 39 40 41 42 44 45 47 47 47 47 47 47 47 46 44 43 41 40 38 37 37 37 38 39 40 40 40 40 41 41 41 40 41 41 41 40 40 41 42 44 46 47 48 49 52 54 51 48 48 48 47 48 49 49 49 50 50 51 50 49 48 49 52 50 46 46 49 50
40 40 40 41 40 40 41 41 41 40 40 39 39 39 38 37 37 38 39 39 39 39 41 43 45 46 47 47 47 47 46 45 44 43 41 40 39 38 38 39 40 41 40 41 41 41 42 42 41 41 42 41 40 40 41 42 44 46 46 48 51 55 54 51 50 51 50 51 51 51 51 51 51 51 52 53 53 53 53 53 51 50 50 50 50
35 36 37 38 40 41 41 42 42 41 40 39 38 38 38 38 38 38 39 39 38 38 39 41 42 43 44 45 46 46 46 45 44 43 41 40 39 38 38 40 41 41 40 40 41 41 40 40 40 40 40 39 39 40 41 42 44 45 46 48 52 53 51 49 51 52 52 53 54 53 54 54 53 53 53 54 55 56 56 55 54 54 54 53 52
32 33 34 35 37 38 39 41 42 42 40 38 37 38 38 39 39 39 39 39 39 39 39 39 41 41 42 44 45 45 45 44 43 43 41 41 40 39 39 40 40 40 40 40 40 40 39 39 39 38 38 37 38 39 40 42 43 44 46 49 50 49 47 49 51 52 53 55 55 54 55 56 56 57 56 56 57 57 57 57 57 57 57 57 56
30 33 34 34 35 35 35 36 37 39 40 39 39 39 39 40 41 40 40 39 39 39 38 38 39 40 41 42 43 43 43 42 42 41 40 40 39 39 39 40 39 38 39 40 40 39 39 39 39 38 37 37 37 38 39 41 43 46 47 48 48 47 47 48 50 51 54 56 55 55 57 58 58 59 59 58 58 58 57 58 58 59 60 61 60
25 29 32 33 33 34 34 33 33 34 36 37 39 40 39 40 41 42 41 41 40 39 39 38 39 39 39 40 40 40 40 40 39 38 38 36 36 35 36 36 35 34 37 38 38 37 36 36 36 36 36 36 36 36 37 38 41 43 44 44 45 45 45 46 48 50 52 54 55 56 58 59 58 58 58 59 58 57 58 59 60 61 62 63 62
20 23 27 30 31 31 31 31 31 31 31 33 35 38 39 40 41 41 41 42 41 40 39 38 38 38 38 38 37 37 37 37 37 36 35 33 32 32 31 31 30 31 32 33 32 31 31 32 32 33 32 32 31 32 33 34 36 37 38 40 41 42 43 45 47 48 49 52 54 56 58 59 59 57 57 57 56 56 58 60 61 64 65 64 61
19 19 21 25 28 29 30 30 30 29 30 30 32 35 38 38 39 40 41 41 41 40 39 37 36 36 36 35 34 34 34 34 35 35 33 31 30 29 28 27 26 27 28 28 28 28 29 30 30 30 29 28 27 28 30 32 34 35 37 38 40 41 43 45 47 48 50 53 54 56 57 58 59 58 55 53 53 54 57 59 61 63 62 58 56
19 19 19 20 23 26 29 31 31 29 29 30 30 31 33 34 36 37 39 40 40 39 37 36 34 33 33 32 31 30 29 31 32 33 32 29 27 26 25 24 24 25 26 27 27 27 29 30 31 32 33 33 33 34 35 36 37 38 39 40 42 44 45 47 48 50 53 55 56 58 58 59 59 57 53 51 53 55 57 60 61 60 58 55 53
18 18 18 18 19 21 25 29 31 31 29 29 29 30 31 32 33 35 36 37 38 37 35 33 31 30 30 29 27 26 27 28 29 29 28 27 26 24 24 24 24 25 26 26 26 28 30 32 34 34 35 36 36 36 37 38 39 40 41 43 45 46 48 49 50 51 54 56 57 59 59 59 58 54 51 53 57 57 57 59 58 57 56 54 53
16 17 17 17 17 18 20 24 28 30 29 28 29 29 30 31 32 32 33 33 33 32 30 29 28 27 26 25 24 25 26 26 26 26 26 25 25 24 24 23 23 23 23 23 24 25 26 27 28 29 30 30 31 32 34 35 36 37 39 41 43 45 47 49 51 53 54 56 58 59 59 58 57 54 52 54 56 56 56 57 57 57 57 56 55
12 13 15 16 17 17 18 21 25 27 28 28 28 28 29 30 29 29 28 27 27 25 24 24 24 23 23 23 23 24 24 24 24 24 24 24 23 23 22 21 21 20 20 20 20 21 21 21 22 24 25 26 28 29 31 32 34 35 37 39 41 44 45 47 50 53 54 56 58 59 59 57 56 55 56 56 57 57 58 59 59 59 59 58 57
12 11 12 14 15 16 17 19 22 24 25 26 26 27 27 27 26 25 24 23 21 20 20 20 21 21 21 22 22 22 22 23 23 23 23 23 22 22 21 20 20 19 19 18 18 18 19 20 21 23 24 26 27 28 29 31 32 34 35 36 38 40 42 44 46 49 50 52 54 56 56 55 53 53 55 57 59 60 60 60 60 60 60 59 60
13 12 11 11 12 14 16 17 19 21 22 24 25 26 26 26 25 24 24 23 22 20 20 20 21 21 21 20 21 21 20 21 21 22 22 22 21 21 20 20 20 19 18 18 18 19 20 20 21 22 22 22 23 24 24 25 26 28 29 30 31 32 34 36 38 40 42 44 47 48 50 50 50 50 52 53 55 57 58 58 58 59 60 61 62
14 13 13 13 13 14 16 17 18 20 22 23 24 24 24 24 24 23 23 23 23 22 22 21 21 20 19 19 19 19 20 20 19 18 19 19 18 18 18 18 18 18 18 17 17 17 17 17 16 17 17 17 17 18 19 19 20 21 23 24 26 27 29 32 34 37 39 41 43 45 46 47 48 49 50 51 53 54 55 56 58 59 61 63 65
13 13 15 16 17 17 17 18 19 21 22 23 23 23 23 23 23 22 21 19 19 19 19 19 19 18 18 18 17 16 17 18 17 16 16 15 15 14 14 14 14 14 14 14 13 12 12 12 12 12 12 13 14 15 15 17 18 20 23 26 28 29 31 33 34 36 38 39 41 43 45 47 48 49 49 50 52 53 54 56 57 58 60 63 65
11 12 14 16 18 19 19 19 19 20 21 22 22 22 22 21 21 22 21 20 18 17 16 16 16 15 16 16 16 15 14 14 13 12 11 10 10 10 10 10 10 10 10 10 10 9 9 9 10 10 11 12 13 15 16 18 21 23 24 25 27 28 29 30 31 32 34 36 38 40 43 46 47 48 49 51 51 52 53 54 55 57 60 63 64
10 11 13 15 17 18 19 19 18 19 19 20 20 21 21 22 21 22 22 21 20 19 17 16 14 12 11 11 11 10 9 8 8 7 7 7 7 7 7 7 7 7 8 8 8 7 7 8 8 9 10 12 14 16 18 18 19 20 21 22 23 25 26 28 29 31 33 36 38 40 42 44 44 44 46 49 50 50 51 52 53 54 57 59 61
9 10 12 14 16 17 18 17 17 17 17 18 19 20 22 22 22 21 20 19 19 19 18 16 14 11 9 8 7 7 6 6 6 6 6 6 5 5 5 5 5 5 5 5 5 6 6 6 8 9 12 14 15 15 15 15 16 17 19 22 24 25 27 29 31 33 36 38 40 42 44 44 43 40 40 42 46 47 47 47 49 51 54 56 59
7 8 10 11 14 16 17 17 17 18 19 20 21 22 22 21 20 19 18 17 17 17 16 14 13 12 11 10 9 8 8 7 7 6 5 4 4 3 3 3 3 3 3 3 4 4 6 8 10 12 13 13 13 13 13 15 17 19 20 21 23 24 26 29 31 34 37 40 43 45 45 45 43 38 35 36 39 41 41 41 43 45 49 51 53
7 6 7 8 11 14 17 18 19 20 21 21 21 21 20 19 17 16 16 15 15 16 16 15 13 13 12 10 8 7 6 6 6 5 4 4 3 3 2 1 0 2 3 4 5 6 9 10 12 13 12 11 11 12 14 16 18 19 19 20 22 23 25 28 31 34 36 40 43 45 45 45 42 36 30 30 33 36 37 37 38 39 40 41 44
11 11 12 12 13 14 16 17 18 18 18 18 18 18 19 19 18 17 16 16 16 16 15 15 13 11 10 9 7 5 5 5 6 5 4 3 3 2 1 1 2 3 5 5 6 7 10 11 11 11 11 10 11 12 14 16 17 17 18 19 20 21 24 27 30 33 36 38 41 43 45 45 43 36 27 24 27 31 32 33 33 34 34 34 33
13 15 17 18 19 19 19 20 21 20 21 22 21 20 19 19 18 18 17 17 16 16 15 15 14 13 11 10 8 6 4 4 5 5 4 4 3 1 1 2 2 3 4 5 5 7 9 10 10 10 10 10 11 12 13 14 13 14 16 17 17 19 22 25 28 30 33 35 36 38 41 43 42 37 30 24 24 25 27 28 28 29 31 31 29
15 17 18 20 22 23 24 25 27 27 27 27 25 23 22 22 21 19 18 17 18 18 18 17 16 15 14 12 11 9 7 6 5 5 4 4 4 2 1 1 1 3 3 3 4 6 8 8 9 10 10 11 11 12 12 11 10 11 13 15 15 17 20 22 23 26 29 32 33 34 36 37 36 34 30 27 23 19 16 15 15 14 16 18 19
17 18 19 20 23 24 25 27 28 28 27 27 26 25 25 25 23 21 20 19 20 20 19 18 17 15 13 12 10 9 9 8 7 6 5 5 5 4 3 2 1 2 3 3 3 4 6 7 8 9 10 11 11 11 11 11 11 12 13 14 15 16 18 19 19 20 23 27 30 32 33 33 32 29 26 24 21 18 15 13 14 16 17 18 20
18 18 19 21 22 23 24 24 24 24 25 25 25 24 24 23 22 21 20 19 19 18 17 16 15 13 11 10 9 8 8 8 9 7 5 4 5 6 6 4 2 2 4 4 3 4 5 6 6 7 8 10 11 12 13 13 14 14 15 15 16 18 18 17 17 17 18 21 23 25 27 29 30 30 31 32 32 32 31 31 32 34 35 37 37
18 18 19 19 20 21 21 20 20 20 21 21 21 21 20 19 19 19 19 18 17 17 16 14 13 12 11 10 9 8 7 6 7 6 4 2 1 3 4 4 4 4 5 5 5 4 3 4 4 5 6 7 8 10 11 13 15 16 16 17 19 20 20 19 19 19 19 19 19 20 21 23 24 26 28 30 32 34 34 34 35 35 36 37 38
20 20 19 19 19 19 18 17 17 16 16 17 17 18 17 16 16 17 17 16 16 16 15 13 12 12 11 10 9 8 7 6 5 6 6 5 4 4 3 2 1 2 4 6 6 6 5 4 4 4 4 4 5 6 7 10 12 14 15 16 18 19 19 19 20 20 19 19 19 20 21 22 22 23 24 26 27 28 29 29 28 29 29 30 31
22 21 20 19 19 18 17 15 14 13 13 13 13 14 15 15 15 15 16 16 16 16 15 13 12 11 10 10 9 9 8 8 8 8 8 9 9 8 8 7 6 4 4 4 4 6 7 7 7 6 5 4 3 2 3 5 7 10 12 13 14 16 16 16 17 17 17 18 19 19 20 20 20 20 21 22 22 24 25 25 25 25 25 26 28
23 21 20 18 17 16 15 14 12 11 10 10 10 10 10 11 12 13 13 14 14 13 13 11 11 10 10 10 10 10 10 10 10 10 9 9 10 11 12 12 11 9 8 6 5 6 9 10 10 9 8 7 5 4 3 2 4 6 8 9 9 10 11 11 12 13 14 14 15 15 15 16 16 17 18 17 17 17 17 19 20 21 22 23 24
19 19 18 16 15 13 11 9 8 8 7 8 8 8 8 8 8 8 8 8 9 9 9 8 9 9 9 10 10 10 11 10 10 10 10 9 10 11 12 14 14 13 11 11 11 11 12 12 12 12 12 11 10 9 8 7 7 7 7 7 8 7 7 6 7 8 9 10 10 10 11 12 13 13 15 15 15 14 13 13 14 16 18 18 18
14 14 14 13 12 11 10 9 9 10 10 10 10 10 10 9 9 9 9 8 8 7 7 6 5 4 4 4 4 5 6 7 9 10 11 10 10 10 10 12 14 14 14 13 14 14 14 14 13 13 13 13 13 13 12 11 11 11 10 9 8 7 7 6 6 7 7 7 7 7 7 8 9 9 9 9 10 11 11 12 12 14 15 16 16
12 12 12 13 13 13 13 13 14 15 15 14 14 14 13 13 13 13 13 12 12 11 11 10 9 9 8 6 5 4 2 1 3 6 8 10 11 11 11 12 13 14 15 15 16 17 17 16 16 16 15 14 13 13 13 13 12 12 12 10 8 6 5 4 4 4 5 6 7 7 7 8 8 8 7 6 5 5 4 5 6 8 10 12 13
16 16 17 18 18 18 17 17 17 18 17 16 16 15 15 15 15 14 13 13 13 12 12 11 11 11 10 10 9 9 8 7 5 4 4 5 7 9 11 12 13 14 15 16 17 18 18 18 19 19 19 17 15 13 12 12 11 11 10 9 7 5 4 3 3 3 4 5 5 6 7 7 7 7 6 5 5 5 4 2 2 1 2 4 5
Wind_Direction
219 221 222 223 223 224 224 225 226 227 227 227 227 228 228 228 229 230 230 231 232 232 233 233 233 234 234 233 231 230 229 226 224 222 222 224 227 231 235 237 239 239 239 240 240 241 243 239 237 236 232 232 232 229 226 225 227 228 229 233 238 244 246 245 249 256 259 258 259 257 253 250 249 250 254 257 256 254 256 260 264 268 272 272 271
220 222 223 224 225 225 226 226 226 227 228 228 228 229 230 230 230 230 231 232 232 233 233 233 233 234 234 234 234 232 232 230 229 226 224 224 225 229 233 236 239 241 241 242 243 244 246 245 241 236 233 233 234 235 235 233 231 233 235 237 238 241 245 248 251 257 261 260 258 258 255 252 252 252 254 258 258 256 257 261 263 267 270 271 272
221 222 223 226 227 226 226 227 228 229 229 230 231 231 230 230 230 231 232 232 233 234 234 234 234 234 235 235 234 233 233 233 232 232 230 228 227 228 232 235 239 241 242 243 244 245 247 248 247 241 236 235 234 235 237 238 237 238 240 242 244 245 246 249 252 256 261 262 259 257 257 257 257 257 258 259 259 256 257 260 263 265 267 268 272
221 222 223 226 227 227 227 228 228 229 230 232 233 233 232 231 230 231 232 233 234 235 235 235 235 235 235 236 235 235 235 234 234 235 235 235 233 232 233 236 239 242 244 245 246 247 248 249 250 247 243 240 237 236 236 238 240 242 243 244 247 249 250 251 253 256 260 262 261 258 257 258 259 259 258 257 255 253 254 257 259 262 265 269 271
220 222 224 226 227 227 227 228 229 230 232 233 234 234 234 232 231 231 232 233 235 235 236 236 236 236 236 236 237 237 237 237 237 237 238 238 238 237 236 237 240 243 246 247 247 248 249 251 252 252 250 248 244 241 239 240 242 244 246 247 248 249 250 251 254 256 258 261 262 259 256 256 257 258 257 255 253 252 252 254 256 260 265 268 270
219 221 224 225 226 227 227 228 230 232 233 234 235 235 234 234 233 232 232 233 235 236 236 236 237 237 238 238 239 240 240 240 240 241 241 241 241 241 240 239 241 243 246 247 248 248 249 252 253 254 253 253 252 250 248 246 245 245 247 247 249 250 251 251 252 254 257 260 262 261 257 254 255 256 256 255 255 254 254 255 258 261 263 265 266
220 222 224 225 226 227 227 229 231 233 235 236 236 235 235 235 235 234 234 234 234 235 236 237 238 239 239 240 241 242 242 242 243 243 243 244 244 245 244 243 243 243 245 247 247 248 249 251 252 254 255 256 256 256 255 254 252 251 250 249 249 251 252 254 254 254 256 258 260 260 259 255 253 254 255 255 255 256 256 256 258 260 261 263 264
220 222 224 225 227 228 228 230 233 235 237 237 237 237 236 235 235 236 236 235 235 236 237 238 239 240 241 242 242 243 244 244 244 245 245 245 246 247 247 247 247 246 247 248 248 249 249 250 251 252 255 257 258 259 258 258 257 256 256 255 252 252 253 255 257 257 258 258 258 260 260 257 253 252 251 250 250 253 255 256 258 260 261 263 265
219 221 222 226 229 230 230 230 233 235 237 237 238 237 236 235 235 236 236 236 237 237 238 239 241 242 243 243 243 243 243 244 245 246 246 246 247 248 249 250 250 250 251 251 252 252 252 252 252 253 255 256 258 260 260 260 259 259 260 260 258 256 256 256 257 258 258 258 259 259 259 258 255 251 249 248 251 255 258 257 259 262 262 262 264
219 220 223 227 230 231 231 232 233 235 236 237 238 238 237 236 235 235 236 237 238 238 238 240 241 242 244 244 244 243 243 244 246 247 248 248 248 250 251 252 253 253 253 254 255 256 256 256 256 256 257 258 259 259 260 260 260 260 261 262 261 260 259 259 259 259 259 259 260 260 259 260 260 256 253 254 256 258 257 255 258 261 260 258 260
219 221 223 227 230 230 232 233 234 236 238 238 239 239 238 237 235 235 236 238 239 239 239 240 241 242 244 244 245 245 246 247 248 249 250 250 250 250 252 253 255 255 256 257 258 259 260 260 260 260 260 260 260 259 259 259 260 260 260 261 261 261 261 261 261 261 260 261 262 262 261 262 265 264 262 261 259 258 258 257 258 257 255 254 257
220 222 225 228 229 231 233 235 236 238 239 239 239 239 238 237 236 235 236 237 239 240 240 241 242 242 243 244 245 247 248 250 251 252 252 252 251 251 252 254 256 257 258 259 260 262 262 262 263 263 263 263 263 262 261 260 260 261 261 261 262 262 262 262 262 262 262 263 264 264 263 264 266 266 265 265 263 261 260 258 257 256 254 254 256
222 225 228 229 230 233 235 237 238 239 240 240 240 239 238 237 237 236 236 238 238 240 241 242 242 243 243 245 246 248 250 251 252 253 254 254 253 252 253 254 256 258 259 260 261 263 264 264 264 264 265 266 266 266 265 264 264 263 263 263 263 262 262 262 263 263 263 265 265 266 266 267 267 267 267 267 266 264 262 258 257 256 254 254 256
223 225 228 230 233 236 238 239 240 241 242 242 241 240 239 239 238 237 237 237 237 239 241 242 243 244 244 245 247 249 251 253 253 254 255 255 255 254 254 255 257 259 260 261 262 264 264 265 265 266 267 267 267 268 268 268 268 267 266 265 264 264 264 263 262 262 261 262 263 265 267 267 267 270 270 268 267 266 264 262 260 258 258 259 262
222 225 228 231 234 237 238 240 242 243 243 242 241 241 241 240 240 238 238 237 238 239 241 242 243 244 245 246 247 250 252 254 255 255 256 256 256 255 255 256 257 258 260 261 262 264 265 265 266 267 268 268 269 270 270 271 271 271 270 269 268 268 267 266 265 264 263 263 263 266 270 269 270 272 272 269 269 269 269 269 268 266 266 265 263
222 225 228 232 235 237 239 240 241 243 243 242 241 241 241 242 242 240 238 238 239 240 241 242 243 245 246 247 247 249 252 254 255 256 257 257 256 255 255 256 256 258 259 261 262 264 265 265 266 267 268 269 270 271 271 271 271 271 271 271 272 271 271 270 269 268 268 267 267 269 272 272 272 273 272 270 270 271 271 270 266 263 263 261 257
226 227 229 232 234 236 238 240 241 243 243 242 242 242 242 242 242 241 240 239 239 240 241 242 244 245 247 247 248 249 252 253 254 256 258 257 256 255 255 255 256 257 259 260 262 263 265 266 267 269 270 271 271 272 272 271 270 270 270 272 272 273 273 272 270 270 271 271 270 271 272 273 272 271 271 269 268 269 268 265 261 259 258 256 254
230 231 232 234 235 236 238 239 240 242 243 243 244 244 244 244 243 242 241 241 242 242 243 243 244 246 247 248 250 251 252 252 253 254 255 255 255 256 256 257 258 259 260 261 262 263 264 265 267 268 270 272 273 274 273 272 271 270 270 272 272 273 273 271 271 273 273 272 271 271 271 272 270 269 269 268 266 265 262 261 261 260 257 255 254
233 234 235 236 238 238 239 238 238 240 242 244 246 246 247 247 246 244 243 243 245 245 245 245 246 247 248 249 250 252 252 253 253 253 253 253 253 253 254 255 256 258 260 262 263 264 265 267 268 269 270 272 273 273 273 271 271 271 271 271 272 273 274 273 273 275 275 274 274 273 273 273 272 270 270 268 266 263 260 260 260 258 255 255 255
237 238 238 239 239 239 240 239 239 239 240 242 245 246 247 247 246 245 244 244 245 245 245 246 247 248 249 250 251 252 252 253 254 254 255 255 254 254 252 252 254 255 258 260 261 263 264 266 268 270 272 274 274 274 273 272 271 272 271 269 270 274 277 277 277 278 277 276 277 276 277 277 275 272 271 269 266 264 261 261 259 255 253 253 252
237 239 239 240 239 240 241 241 241 241 241 241 242 243 245 245 246 245 245 245 245 245 245 246 247 249 250 250 251 252 253 253 254 255 256 257 257 257 255 256 257 259 260 262 262 262 263 264 266 268 270 272 273 274 275 274 274 273 271 270 272 277 280 279 279 279 277 276 276 276 276 276 274 271 269 268 267 265 263 262 260 256 252 250 249
238 240 241 242 242 242 243 243 243 242 241 240 239 238 240 242 244 245 246 245 246 246 247 247 248 249 250 251 252 253 254 254 255 256 257 257 257 257 258 259 261 263 264 265 265 265 266 268 270 271 271 272 273 274 275 276 275 274 274 275 277 279 278 277 277 276 275 274 273 272 273 272 270 269 268 267 267 266 264 264 263 259 255 252 249
240 242 243 243 245 245 246 246 245 242 240 239 238 237 237 238 241 243 244 245 245 246 248 248 248 249 250 251 253 254 254 254 255 256 257 257 257 258 259 261 262 263 265 267 268 271 273 274 275 276 276 276 276 276 276 277 277 277 279 281 282 282 281 279 277 275 274 273 271 270 270 270 268 267 266 267 267 266 265 265 264 262 258 254 250
240 242 243 243 243 245 247 248 248 245 242 239 237 236 236 236 238 240 242 243 245 246 247 247 248 249 250 252 253 254 254 254 255 256 256 256 257 258 259 261 262 263 265 268 271 273 274 274 275 275 275 276 277 277 277 276 276 278 280 282 283 283 282 280 279 278 277 275 272 270 271 270 268 267 268 268 269 269 269 267 265 263 259 253 248
243 242 242 241 240 240 242 245 247 247 245 240 237 235 234 234 236 238 240 242 243 244 246 247 248 249 251 253 254 254 255 255 255 256 256 256 257 258 259 260 261 261 262 264 266 267 267 268 270 272 272 271 271 271 272 273 275 277 279 281 282 282 281 280 279 279 278 276 274 273 273 273 272 269 268 269 270 270 269 267 264 262 257 250 245
248 245 243 239 235 234 237 241 243 245 244 242 239 237 236 236 236 237 239 240 242 243 245 246 247 250 252 254 255 256 257 256 255 256 255 255 255 255 255 254 253 253 255 257 260 263 265 266 266 267 267 267 268 270 272 275 277 279 280 281 281 281 281 281 281 280 279 279 278 277 277 278 276 271 267 269 271 270 269 268 265 261 256 249 243
251 248 245 241 233 229 232 237 240 241 240 238 236 236 237 237 237 237 238 239 240 241 243 244 247 249 252 254 256 257 256 255 255 256 256 254 252 250 250 250 249 248 250 253 257 261 265 267 268 269 270 271 272 274 275 277 278 279 279 280 280 281 281 282 281 281 280 279 279 278 279 280 277 272 269 270 272 272 271 270 266 261 256 251 244
253 249 243 239 234 227 226 232 236 236 233 230 229 230 231 233 236 238 239 240 240 242 244 247 249 251 253 254 254 253 252 252 253 254 254 253 251 250 250 251 250 249 251 255 259 263 266 269 270 271 272 272 273 274 274 275 277 278 279 280 281 282 282 282 282 281 280 280 281 282 282 282 280 278 276 275 274 274 274 272 268 262 257 252 245
253 251 242 235 232 227 222 225 230 230 227 224 223 223 225 227 230 235 238 241 243 246 249 251 253 254 253 252 250 249 249 249 249 251 251 251 251 252 252 252 253 254 257 259 262 263 264 265 266 267 269 270 271 272 273 274 275 276 277 278 279 280 281 282 282 282 282 284 284 284 285 285 283 282 281 280 278 277 275 273 270 263 256 251 246
238 239 237 230 226 222 218 219 223 223 223 222 221 220 220 222 224 229 233 236 240 244 247 250 252 251 249 248 247 246 245 243 242 243 246 248 249 251 252 253 254 256 257 258 260 262 264 266 267 269 271 272 273 274 275 277 278 278 279 279 280 282 283 284 284 285 286 286 285 285 285 285 283 281 280 278 278 277 276 274 270 261 253 248 246
227 220 220 217 212 210 209 209 210 212 215 218 219 218 217 216 219 225 229 231 234 237 238 241 244 245 243 243 242 240 240 239 239 238 240 243 245 246 248 250 252 254 258 262 266 269 271 273 274 276 278 279 281 283 284 285 286 287 287 287 287 287 288 289 291 293 293 293 293 292 291 289 286 283 279 277 276 275 274 272 267 259 251 247 245
229 218 211 204 198 199 200 199 200 204 207 212 216 218 219 216 216 219 224 227 230 233 232 233 237 238 233 232 235 235 233 232 232 231 232 233 235 238 242 247 253 260 265 270 273 275 277 278 280 282 285 287 289 291 292 294 296 298 300 301 301 301 302 304 306 306 306 305 304 301 298 295 291 287 282 278 274 272 270 267 263 257 252 247 245
233 226 216 207 204 204 202 200 201 203 206 210 214 218 221 221 219 217 215 216 221 226 226 225 226 227 225 223 225 225 223 221 220 219 222 227 234 240 247 255 262 269 274 276 277 279 280 283 287 290 294 297 299 303 308 311 315 319 321 321 321 319 318 317 315 314 312 311 308 305 301 298 294 289 283 279 275 272 269 265 261 257 252 248 244
225 224 220 216 214 211 208 208 208 207 208 211 213 214 217 221 222 221 217 211 208 208 208 208 208 212 215 216 214 213 213 215 218 222 228 236 244 249 254 259 264 269 271 273 277 283 289 296 303 309 313 316 320 324 327 328 329 330 330 330 330 330 329 328 326 326 325 323 319 314 308 303 298 291 284 281 278 274 271 267 262 258 253 248 244
210 210 214 218 217 213 210 212 212 209 208 208 209 210 210 210 212 213 212 207 200 195 193 193 194 198 204 207 206 205 209 213 216 218 220 224 230 239 249 256 259 263 269 275 284 296 304 310 315 321 327 330 332 334 335 335 337 339 340 342 344 344 345 345 345 344 342 338 334 329 323 316 307 296 287 282 279 276 273 270 266 261 257 252 246
208 203 203 207 211 210 209 208 207 206 204 203 203 203 200 197 195 194 194 194 191 187 183 181 181 182 184 184 180 179 184 190 191 191 193 203 215 228 243 251 255 261 274 291 304 311 319 327 331 336 338 339 341 343 345 347 351 353 353 353 353 353 355 356 356 355 353 350 348 345 339 331 320 306 291 284 282 279 277 274 271 268 264 258 251
202 203 199 196 196 196 196 195 195 195 195 194 194 190 186 184 182 179 176 177 178 174 169 166 166 165 162 160 161 164 167 171 176 177 179 189 202 214 227 242 255 271 298 328 346 353 357 355 350 347 347 348 351 355 355 356 357 357 357 357 357 359 2 4 5 3 0 358 357 355 350 343 332 316 298 287 285 283 281 278 276 275 272 267 258
152 158 166 170 174 177 177 176 178 179 180 179 179 176 172 168 166 164 161 160 161 158 153 150 152 154 152 149 151 155 158 161 166 170 169 173 181 188 197 214 301 359 9 18 23 18 8 1 357 356 357 357 356 356 356 357 357 358 359 0 3 8 13 14 14 12 7 3 1 359 357 351 341 327 307 293 291 291 289 286 283 281 282 280 270
135 131 133 139 148 154 157 157 158 161 162 160 158 157 155 151 150 150 148 147 147 145 141 140 140 136 130 127 124 125 136 151 160 162 156 152 159 159 127 63 39 30 26 26 26 19 12 8 7 5 2 357 352 352 355 357 358 360 3 7 13 20 23 22 20 17 14 10 6 2 1 358 350 339 324 307 298 294 291 287 286 285 286 286 276
143 139 136 135 136 138 140 141 142 144 145 146 146 146 144 142 142 140 137 133 131 129 129 130 126 117 111 109 107 109 127 157 166 160 143 125 122 113 57 36 37 36 29 26 26 25 21 18 15 11 5 357 349 350 354 356 357 3 9 15 22 27 26 24 24 23 22 21 17 10 6 2 357 352 346 334 316 301 291 287 286 286 283 278 267
148 146 144 140 138 138 137 138 140 141 142 144 146 146 143 140 137 134 130 127 126 126 126 125 121 118 117 117 117 120 127 134 138 139 126 107 90 67 41 33 38 30 19 17 27 31 27 22 19 17 14 4 355 352 355 354 350 352 360 6 13 16 14 17 24 31 34 35 35 30 22 14 7 4 1 356 347 333 315 300 287 271 260 252 238
144 142 144 145 145 143 140 138 141 144 146 147 148 149 148 146 143 140 137 135 135 134 132 130 129 131 131 130 131 137 137 128 118 105 81 61 49 37 24 15 13 3 348 345 5 24 25 21 19 20 20 17 13 14 14 8 356 348 348 351 356 1 4 6 14 29 41 46 48 48 45 38 33 32 33 34 36 43 56 73 93 109 119 125 130
146 140 141 143 143 141 137 136 138 142 143 143 144 146 150 152 151 150 149 148 146 146 145 143 143 145 145 144 151 160 157 147 137 125 96 57 39 30 21 13 349 312 310 316 330 353 6 8 8 12 19 24 27 30 31 28 21 13 9 10 14 18 18 14 12 21 36 42 44 49 56 59 60 63 66 67 68 71 77 86 94 99 103 106 108
157 149 144 141 137 134 133 135 137 137 137 137 140 143 148 152 154 156 159 160 158 156 156 155 157 161 164 167 172 178 178 172 168 170 178 176 117 57 32 18 359 331 313 301 295 306 334 345 341 345 0 17 27 32 34 36 35 30 26 27 30 32 33 32 29 28 29 29 32 41 52 61 67 71 73 74 75 78 83 90 94 97 101 104 107
160 156 151 145 139 134 132 132 134 135 136 139 141 141 143 146 150 154 160 166 169 169 170 171 172 175 178 183 189 197 203 208 214 224 230 226 213 208 220 232 273 326 321 307 290 281 281 288 294 300 317 342 5 24 34 38 39 37 32 30 31 34 35 36 36 35 34 34 37 42 46 50 57 63 67 70 73 77 82 88 93 97 101 106 111
154 153 151 148 145 141 138 137 138 140 143 144 143 142 143 146 149 152 157 163 169 174 176 178 179 182 187 192 199 205 210 212 217 223 226 226 225 229 237 242 241 247 267 289 293 282 274 271 269 269 276 292 309 343 24 32 34 33 30 28 31 36 37 35 35 39 42 42 42 43 43 45 49 55 59 64 69 74 78 81 85 90 96 102 106
149 150 150 149 149 148 147 147 151 153 153 154 154 154 155 156 156 158 162 166 171 177 183 187 191 196 200 204 207 211 212 213 214 214 215 221 229 237 245 250 251 252 252 246 241 249 255 253 249 246 246 250 253 254 267 312 338 351 358 2 10 22 30 32 33 37 39 38 36 35 38 42 46 50 55 59 66 74 81 85 88 91 95 100 104
135 135 133 134 138 139 138 141 148 152 155 161 166 167 164 163 162 163 164 169 175 181 186 193 199 207 213 217 222 225 227 228 230 230 228 228 230 234 238 239 241 247 252 249 242 244 249 251 249 247 246 247 247 246 249 262 280 297 315 326 332 335 342 352 360 3 7 13 17 21 25 30 36 43 50 56 62 68 76 87 97 102 103 104 106
113 112 110 111 114 115 115 120 125 127 129 134 137 136 133 131 128 125 122 120 121 121 121 125 135 151 171 192 211 227 235 240 245 249 250 249 247 246 246 241 236 236 242 247 251 254 258 262 265 264 261 258 258 258 261 267 274 280 288 300 309 312 313 318 324 327 331 340 347 353 1 7 10 17 30 42 52 59 67 79 94 105 110 113 114
102 100 99 100 101 102 103 107 111 112 112 113 112 110 108 106 102 99 96 94 92 89 85 83 80 76 72 67 61 53 39 323 265 260 262 264 263 262 263 260 253 246 243 245 250 256 260 264 269 272 270 267 266 267 270 273 275 277 280 284 291 298 305 314 323 326 328 332 335 337 338 338 337 339 346 359 8 20 43 72 93 110 120 125 127
102 101 101 100 100 101 101 102 104 105 105 104 102 100 99 97 94 91 88 85 82 79 77 75 72 69 66 61 56 49 43 38 29 6 319 294 281 272 267 266 266 263 257 250 248 250 253 258 264 268 270 270 269 269 270 270 269 271 274 275 275 279 286 296 312 321 323 328 337 344 347 348 347 345 348 2 13 11 9 23 55 101 156 165 168